Find Starlink 32400

NORAD ID: 61669 Int'l Des: 2024-193 Owner: SPXS Country: US Constellation: starlink operational
LEOCIRCULAR

实时位置

正在加载3D地球...

关于 Starlink 32400

正在加载描述...

即将过境

Passes for default location (London). Set your location on the main map for personalized predictions.

高度历史

Loading altitude history...

两行轨道根数

1 61669U 24193J 26123.46092566 .00000908 00000-0 42775-4 0 9995
2 61669 53.1609 194.3793 0001142 84.5178 275.5953 15.30197182 84949
Epoch: May 3, 2026 • Age: 17 hours

当前状态

高度 483.3 km
速度 7.62 km/s
星下点 -25.92°S, 115.39°E
发射日期 Oct 26, 2024
运行时间 1.5 years
类型 internet

技术详情

分类 Payload
质量 730.00 kg
干质量 700.00 kg
总质量 730.00 kg
长度 0.30 m
直径 4.10 m
跨度 29.00 m
形状 Box + pan
制造商 SPXS
平台类型 Starlink V2M
阶段状态 In Orbit
所有者/国家 SPXS/US

Most Searched